Погода в Кузедееве

Россия / Кемеровская область (Кузбасс)     53°20′13″N   87°11′30″E
темп.,
°C
ветер,
м/с
пор.,
м/с
влажн.,
%
обл.,
%
осадки,
мм/ч
давл.,
гПа
погр.,
м
28 января, чт
чт2801:00−6зюз61394100 3.1 10261003
04:00−6зюз51294100 1.3 1028878
07:00−7зюз51194100 3.1 1030761
10:00−7зюз51094100 1.8 1031712
13:00−6юз51094100 3.3 1031680
16:00−6юз51192100 0.8 1030816
19:00−6юз51194100 1.3 1030877
22:00−6юз51393100 0.6 1030800
29 января, пт
пт2901:00−6зюз61393100 1.6 1029884
04:00−6юз61394100 0.7 1028876
07:00−5юз71491100 1.2 1027910
10:00−4юз81689100 0.2 10241036
13:00−3зюз81687100 0.3 10241211
16:00−5з61395100 0.9 10241018
19:00−6зюз51194100 3.1 1027897
22:00−6зюз41094100 0.9 1028741
30 января, сб
сб3001:00−6юз41094100 1.4 1028590
04:00−6юз41095100 0.6 1028678
07:00−7зюз41095100 1.3 1028727
10:00−7зюз4994100 0.9 1029738
13:00−6зюз4793100 1.4 1030732
16:00−7з3693100 0.4 1031645
19:00−9з2397100 0.6 103489
22:00−15с2298100 0.2 103539
31 января, вс
вс3101:00−18св119895 0.3 103720
04:00−17св129987 0.0 103620
07:00−17всв129879 0.1 103620
10:00−16всв129437 0.0 103530
13:00−8всв138818 0.0 1032243
16:00−5всв239140 0.0 1029265
19:00−10всв229368 0.0 102821
22:00−11в2290100 0.0 102621
1 февраля, пн
пн101:00−11в1288100 0.0 102321
04:00−12вюв1286100 0.0 102121
07:00−12юв1185100 0.0 101921
10:00−11ю2288100 0.0 102027
13:00−7ююз479399 0.0 1020449
16:00−9юз3694100 0.1 1020390
19:00−13ююз2398100 0.1 102347
22:00−13ююз2795100 0.0 1026180